| time (UTC) | temp C | wind direction | speed KPH | gust KPH | rain 1hr cm | rain 24hr cm | rain mn cm | humidity % | barometer mb |
| 20260904234509 | 23 | 320 | 14.5 | 29.0 | 0.00 | 0.00 | 0.00 | 31 | 1007.5 |
| 20260904233008 | 23 | 315 | 8.0 | 20.9 | 0.00 | 0.00 | 0.00 | 32 | 1007.4 |
| 20260904231507 | 23 | 11 | 9.7 | 24.1 | 0.00 | 0.00 | 0.00 | 32 | 1007.4 |
| 20260904230006 | 23 | 300 | 8.0 | 25.7 | 0.00 | 0.00 | 0.00 | 32 | 1007.5 |
| 20260904224505 | 23 | 320 | 9.7 | 20.9 | 0.00 | 0.00 | 0.00 | 32 | 1007.4 |
| 20260904223004 | 23 | 346 | 9.7 | 19.3 | 0.00 | 0.00 | 0.00 | 32 | 1007.2 |
| 20260904221613 | 23 | 343 | 9.7 | 24.1 | 0.00 | 0.00 | 0.00 | 33 | 1007.1 |
| 20260904214608 | 23 | 264 | 6.4 | 25.7 | 0.00 | 0.00 | 0.00 | 33 | 1006.5 |
| 20260904213056 | 24 | 351 | 9.7 | 22.5 | 0.00 | 0.00 | 0.00 | 33 | 1006.2 |
| 20260904211603 | 25 | 270 | 11.3 | 19.3 | 0.00 | 0.00 | 0.00 | 31 | 1006.0 |
| 20260904210055 | 25 | 241 | 8.0 | 16.1 | 0.00 | 0.00 | 0.00 | 31 | 1005.7 |
| 20260904204551 | 24 | 344 | 8.0 | 17.7 | 0.00 | 0.00 | 0.00 | 32 | 1005.5 |
| 20260904203051 | 25 | 304 | 9.7 | 19.3 | 0.00 | 0.00 | 0.00 | 30 | 1005.5 |
| 20260904201551 | 24 | 231 | 6.4 | 17.7 | 0.00 | 0.00 | 0.00 | 32 | 1005.3 |
| 20260904200059 | 23 | 303 | 11.3 | 22.5 | 0.00 | 0.00 | 0.00 | 32 | 1005.4 |
| 20260904194554 | 23 | 240 | 4.8 | 17.7 | 0.00 | 0.00 | 0.00 | 33 | 1005.1 |
| 20260904193052 | 25 | 240 | 9.7 | 17.7 | 0.00 | 0.00 | 0.00 | 31 | 1004.7 |
| 20260904191545 | 23 | 234 | 4.8 | 14.5 | 0.00 | 0.00 | 0.00 | 32 | 1004.6 |
| 20260904190042 | 23 | 302 | 4.8 | 16.1 | 0.00 | 0.00 | 0.00 | 35 | 1004.7 |
| 20260904184540 | 22 | 257 | 6.4 | 16.1 | 0.00 | 0.00 | 0.00 | 37 | 1004.7 |
| 20260904183037 | 21 | 244 | 8.0 | 16.1 | 0.00 | 0.00 | 0.00 | 37 | 1004.7 |
| 20260904181540 | 21 | 263 | 3.2 | 16.1 | 0.00 | 0.00 | 0.00 | 37 | 1004.6 |
| 20260904180033 | 21 | 252 | 6.4 | 11.3 | 0.00 | 0.00 | 0.00 | 37 | 1004.5 |
| 20260904174533 | 20 | 248 | 4.8 | 17.7 | 0.00 | 0.00 | 0.00 | 40 | 1004.5 |
| 20260904173033 | 20 | 253 | 6.4 | 17.7 | 0.00 | 0.00 | 0.00 | 40 | 1004.6 |
| 20260904171541 | 20 | 254 | 8.0 | 17.7 | 0.00 | 0.00 | 0.00 | 38 | 1004.3 |
| 20260904170029 | 20 | 207 | 6.4 | 12.9 | 0.00 | 0.00 | 0.00 | 42 | 1004.2 |
| 20260904164528 | 20 | 289 | 4.8 | 12.9 | 0.00 | 0.00 | 0.00 | 43 | 1003.9 |
| 20260904163029 | 19 | 311 | 1.6 | 8.0 | 0.00 | 0.00 | 0.00 | 43 | 1003.6 |
| 20260904161532 | 18 | 275 | 0.0 | 4.8 | 0.00 | 0.00 | 0.00 | 46 | 1003.6 |
| 20260904160019 | 18 | 19 | 1.6 | 8.0 | 0.00 | 0.00 | 0.00 | 46 | 1003.2 |
| 20260904154515 | 17 | 41 | 4.8 | 9.7 | 0.00 | 0.00 | 0.00 | 48 | 1002.8 |
| 20260904153017 | 16 | 76 | 3.2 | 12.9 | 0.00 | 0.00 | 0.00 | 49 | 1002.9 |
| 20260904151508 | 16 | 37 | 6.4 | 14.5 | 0.00 | 0.00 | 0.00 | 50 | 1002.7 |
| 20260904150015 | 16 | 29 | 9.7 | 12.9 | 0.00 | 0.00 | 0.00 | 51 | 1002.7 |
| 20260904144501 | 15 | 65 | 1.6 | 11.3 | 0.00 | 0.00 | 0.00 | 55 | 1002.8 |
| 20260904143100 | 13 | 331 | 1.6 | 6.4 | 0.00 | 0.00 | 0.00 | 65 | 1003.0 |
| 20260904141600 | 12 | 321 | 3.2 | 6.4 | 0.00 | 0.00 | 0.00 | 67 | 1003.2 |
| 20260904140058 | 12 | 326 | 3.2 | 9.7 | 0.00 | 0.00 | 0.00 | 66 | 1003.3 |
| 20260904134601 | 12 | 302 | 0.0 | 3.2 | 0.00 | 0.00 | 0.00 | 66 | 1003.1 |
| 20260904133056 | 12 | 312 | 1.6 | 6.4 | 0.00 | 0.00 | 0.00 | 62 | 1002.9 |
| 20260904131621 | 12 | 325 | 3.2 | 4.8 | 0.00 | 0.00 | 0.00 | 60 | 1002.9 |
| 20260904130054 | 12 | 331 | 3.2 | 6.4 | 0.00 | 0.00 | 0.00 | 61 | 1002.7 |
| 20260904124553 | 12 | 340 | 1.6 | 4.8 | 0.00 | 0.00 | 0.00 | 61 | 1002.7 |
| 20260904123057 | 12 | 318 | 1.6 | 6.4 | 0.00 | 0.00 | 0.00 | 59 | 1002.8 |
| 20260904121553 | 12 | 33 | 4.8 | 8.0 | 0.00 | 0.00 | 0.00 | 61 | 1002.7 |
| 20260904120053 | 11 | 22 | 1.6 | 4.8 | 0.00 | 0.00 | 0.00 | 63 | 1002.8 |
| 20260904114552 | 11 | 339 | 1.6 | 4.8 | 0.00 | 0.00 | 0.00 | 63 | 1002.9 |
| 20260904113047 | 11 | 327 | 1.6 | 4.8 | 0.00 | 0.00 | 0.00 | 64 | 1003.0 |
| 20260904111546 | 11 | 328 | 0.0 | 4.8 | 0.00 | 0.00 | 0.00 | 63 | 1003.1 |
| 20260904110042 | 11 | 336 | 1.6 | 4.8 | 0.00 | 0.00 | 0.00 | 62 | 1003.4 |
| 20260904104540 | 12 | 351 | 3.2 | 8.0 | 0.00 | 0.00 | 0.00 | 59 | 1003.6 |
| 20260904103050 | 12 | 316 | 3.2 | 8.0 | 0.00 | 0.00 | 0.00 | 57 | 1003.7 |
| 20260904101539 | 13 | 9 | 3.2 | 8.0 | 0.00 | 0.00 | 0.00 | 56 | 1003.8 |
| 20260904100038 | 13 | 330 | 3.2 | 9.7 | 0.00 | 0.00 | 0.00 | 54 | 1003.8 |
| 20260904094539 | 13 | 343 | 4.8 | 9.7 | 0.00 | 0.00 | 0.00 | 55 | 1003.7 |
| 20260904093034 | 12 | 342 | 4.8 | 9.7 | 0.00 | 0.00 | 0.00 | 56 | 1003.8 |
| 20260904091534 | 12 | 5 | 6.4 | 11.3 | 0.00 | 0.00 | 0.00 | 57 | 1003.8 |
| 20260904090033 | 12 | 28 | 4.8 | 9.7 | 0.00 | 0.00 | 0.00 | 57 | 1004.1 |
| 20260904084529 | 11 | 360 | 3.2 | 8.0 | 0.00 | 0.00 | 0.00 | 58 | 1004.3 |
| 20260904083032 | 12 | 331 | 3.2 | 6.4 | 0.00 | 0.00 | 0.00 | 57 | 1004.7 |
| 20260904081523 | 12 | 348 | 4.8 | 8.0 | 0.00 | 0.00 | 0.00 | 56 | 1004.9 |
| 20260904080019 | 13 | 17 | 6.4 | 11.3 | 0.00 | 0.00 | 0.00 | 54 | 1005.2 |
| 20260904074534 | 13 | 360 | 3.2 | 8.0 | 0.00 | 0.00 | 0.00 | 54 | 1005.1 |
| 20260904073020 | 13 | 82 | 3.2 | 8.0 | 0.00 | 0.00 | 0.00 | 53 | 1005.3 |
| 20260904071513 | 14 | 49 | 3.2 | 11.3 | 0.00 | 0.00 | 0.00 | 51 | 1005.4 |
| 20260904070012 | 14 | 355 | 6.4 | 11.3 | 0.00 | 0.00 | 0.00 | 51 | 1005.3 |
| 20260904064516 | 15 | 360 | 4.8 | 11.3 | 0.00 | 0.00 | 0.00 | 51 | 1005.4 |
| 20260904063009 | 15 | 21 | 3.2 | 8.0 | 0.00 | 0.00 | 0.00 | 52 | 1005.5 |
| 20260904061506 | 14 | 19 | 3.2 | 6.4 | 0.00 | 0.00 | 0.00 | 53 | 1005.6 |
| 20260904060002 | 13 | 309 | 0.0 | 3.2 | 0.00 | 0.00 | 0.00 | 55 | 1005.7 |
| 20260904054503 | 13 | 302 | 0.0 | 3.2 | 0.00 | 0.00 | 0.00 | 55 | 1005.6 |
| 20260904053001 | 13 | 302 | 0.0 | 4.8 | 0.00 | 0.00 | 0.00 | 54 | 1005.6 |
| 20260904051616 | 14 | 306 | 1.6 | 4.8 | 0.00 | 0.00 | 0.00 | 52 | 1005.6 |
| 20260904044609 | 15 | 311 | 1.6 | 9.7 | 0.00 | 0.00 | 0.00 | 48 | 1005.8 |
| 20260904043101 | 16 | 344 | 3.2 | 11.3 | 0.00 | 0.00 | 0.00 | 46 | 1005.9 |
| 20260904041607 | 16 | 12 | 6.4 | 12.9 | 0.00 | 0.00 | 0.00 | 45 | 1005.9 |
| 20260904040109 | 16 | 17 | 6.4 | 12.9 | 0.00 | 0.00 | 0.00 | 44 | 1005.9 |
| 20260904034608 | 16 | 317 | 4.8 | 12.9 | 0.00 | 0.00 | 0.00 | 44 | 1005.9 |
| 20260904033102 | 16 | 336 | 4.8 | 9.7 | 0.00 | 0.00 | 0.00 | 45 | 1005.9 |
| 20260904031555 | 16 | 347 | 3.2 | 8.0 | 0.00 | 0.00 | 0.00 | 45 | 1005.8 |
| 20260904030055 | 17 | 350 | 6.4 | 12.9 | 0.00 | 0.00 | 0.00 | 44 | 1005.7 |
| 20260904024553 | 16 | 5 | 8.0 | 12.9 | 0.00 | 0.00 | 0.00 | 45 | 1005.5 |
| 20260904023053 | 17 | 350 | 6.4 | 11.3 | 0.00 | 0.00 | 0.00 | 44 | 1005.4 |
| 20260904021549 | 17 | 341 | 4.8 | 11.3 | 0.00 | 0.00 | 0.00 | 42 | 1005.3 |
| 20260904020051 | 18 | 323 | 3.2 | 11.3 | 0.00 | 0.00 | 0.00 | 40 | 1005.1 |
| 20260904014622 | 20 | 360 | 4.8 | 12.9 | 0.00 | 0.00 | 0.00 | 39 | 1005.0 |
| 20260904013049 | 21 | 338 | 3.2 | 6.4 | 0.00 | 0.00 | 0.00 | 37 | 1005.0 |
| 20260904011545 | 22 | 321 | 3.2 | 9.7 | 0.00 | 0.00 | 0.00 | 35 | 1004.8 |
| 20260904010050 | 23 | 309 | 3.2 | 12.9 | 0.00 | 0.00 | 0.00 | 34 | 1004.8 |
| 20260904004543 | 23 | 298 | 4.8 | 11.3 | 0.00 | 0.00 | 0.00 | 33 | 1004.8 |
| 20260904003046 | 23 | 314 | 3.2 | 12.9 | 0.00 | 0.00 | 0.00 | 33 | 1004.6 |
| 20260904001546 | 23 | 289 | 6.4 | 19.3 | 0.00 | 0.00 | 0.00 | 32 | 1004.4 |
| 20260904000040 | 24 | 282 | 6.4 | 17.7 | 0.00 | 0.00 | 0.00 | 31 | 1004.5 |